When you browse on this site, cookies collect data to enhance your experience and personalize the content and advertising you see.
Visit our Privacy Policy to learn more. By continuing to use the site, you agree to this use of cookies and data.
  • In Sweden
  • List of Countries
  • For 7 days
  • Water Temperature
  • Satellite Maps
  • Weather Map
  • Weather Widgets
  • user-avatar
    Login

    Hourly Weather Hohlovo

    Today, 26 May, Sunday

    Time Temperature Precipitation Wind Pressure Humidity
    00:00 +9°C° 0 mm 2 mps 745 mmHg 90%
    01:00 +8°C° 0 mm 2 mps 745 mmHg 92%
    02:00 +7°C° 0 mm 2 mps 745 mmHg 96%
    03:00 +7°C° 0 mm 2 mps 745 mmHg 94%
    04:00 +8°C° 0 mm 2 mps 746 mmHg 93%
    05:00 +8°C° 0 mm 3 mps 746 mmHg 91%
    06:00 +9°C° 0 mm 3 mps 746 mmHg 85%
    07:00 +10°C° 0 mm 3 mps 746 mmHg 79%
    08:00 +11°C° 0 mm 3 mps 746 mmHg 74%
    09:00 +13°C° 0 mm 3 mps 746 mmHg 67%
    10:00 +14°C° 0 mm 3 mps 746 mmHg 60%
    11:00 +17°C° 0 mm 3 mps 745 mmHg 54%
    12:00 +18°C° 0 mm 3 mps 745 mmHg 53%
    13:00 +18°C° 0 mm 3 mps 745 mmHg 53%
    14:00 +19°C° 0 mm 4 mps 744 mmHg 52%
    15:00 +18°C° 0.2 mm 4 mps 744 mmHg 57%
    16:00 +18°C° 0.2 mm 4 mps 744 mmHg 61%
    17:00 +17°C° 0.2 mm 4 mps 744 mmHg 65%
    18:00 +15°C° 0.3 mm 4 mps 744 mmHg 73%
    19:00 +13°C° 0.3 mm 4 mps 744 mmHg 80%
    20:00 +12°C° 0.3 mm 3 mps 744 mmHg 88%
    21:00 +11°C° 0 mm 3 mps 744 mmHg 87%
    22:00 +10°C° 0 mm 4 mps 744 mmHg 87%
    23:00 +8°C° 0 mm 4 mps 744 mmHg 86%

    Tomorrow, 27 May, Monday

    Time Temperature Precipitation Wind Pressure Humidity
    00:00 +8°C° 0 mm 4 mps 744 mmHg 85%
    01:00 +8°C° 0 mm 4 mps 744 mmHg 84%
    02:00 +8°C° 0 mm 4 mps 744 mmHg 83%
    03:00 +8°C° 0 mm 4 mps 744 mmHg 84%
    04:00 +10°C° 0 mm 4 mps 744 mmHg 85%
    05:00 +10°C° 0 mm 4 mps 744 mmHg 86%
    06:00 +11°C° 0 mm 4 mps 744 mmHg 82%
    07:00 +12°C° 0 mm 5 mps 744 mmHg 78%
    08:00 +13°C° 0 mm 5 mps 744 mmHg 73%
    09:00 +15°C° 0 mm 5 mps 745 mmHg 66%
    10:00 +16°C° 0 mm 5 mps 745 mmHg 59%
    11:00 +19°C° 0 mm 5 mps 745 mmHg 52%
    12:00 +16°C° 0.1 mm 5 mps 745 mmHg 63%
    13:00 +15°C° 0.1 mm 4 mps 745 mmHg 73%
    14:00 +13°C° 0.1 mm 3 mps 745 mmHg 84%
    15:00 +13°C° 0.8 mm 3 mps 745 mmHg 87%
    16:00 +14°C° 0.8 mm 3 mps 745 mmHg 90%
    17:00 +14°C° 0.8 mm 3 mps 745 mmHg 94%
    18:00 +15°C° 0.1 mm 2 mps 746 mmHg 94%
    19:00 +15°C° 0.1 mm 2 mps 746 mmHg 94%
    20:00 +15°C° 0.1 mm 2 mps 746 mmHg 95%
    21:00 +15°C° 0 mm 2 mps 746 mmHg 95%
    22:00 +15°C° 0 mm 2 mps 746 mmHg 96%
    23:00 +14°C° 0 mm 2 mps 746 mmHg 97%

    Day after tomorrow, 28 May, Tuesday

    Time Temperature Precipitation Wind Pressure Humidity
    00:00 +14°C° 0 mm 2 mps 747 mmHg 97%
    01:00 +14°C° 0 mm 2 mps 747 mmHg 97%
    02:00 +14°C° 0 mm 2 mps 747 mmHg 97%
    03:00 +14°C° 0 mm 2 mps 748 mmHg 97%
    04:00 +14°C° 0 mm 2 mps 748 mmHg 98%
    05:00 +14°C° 0 mm 2 mps 749 mmHg 98%
    06:00 +14°C° 0 mm 2 mps 749 mmHg 92%
    07:00 +15°C° 0 mm 2 mps 749 mmHg 86%
    08:00 +16°C° 0 mm 2 mps 749 mmHg 80%
    09:00 +18°C° 0 mm 2 mps 749 mmHg 71%
    10:00 +19°C° 0 mm 2 mps 749 mmHg 62%
    11:00 +21°C° 0 mm 2 mps 749 mmHg 54%
    12:00 +21°C° 0.1 mm 2 mps 749 mmHg 57%
    13:00 +22°C° 0.1 mm 1 mps 749 mmHg 61%
    14:00 +22°C° 0.1 mm 1 mps 749 mmHg 64%
    15:00 +20°C° 1.5 mm 1 mps 749 mmHg 74%
    16:00 +17°C° 1.5 mm 2 mps 748 mmHg 84%
    17:00 +16°C° 1.5 mm 3 mps 748 mmHg 95%
    18:00 +14°C° 1.7 mm 3 mps 748 mmHg 95%
    19:00 +15°C° 1.7 mm 2 mps 747 mmHg 96%
    20:00 +15°C° 1.7 mm 2 mps 747 mmHg 97%
    21:00 +15°C° 0 mm 2 mps 747 mmHg 98%
    22:00 +14°C° 0 mm 2 mps 747 mmHg 98%
    23:00 +14°C° 0 mm 1 mps 747 mmHg 99%

    29 May, Wednesday

    Time Temperature Precipitation Wind Pressure Humidity
    00:00 +15°C° 0.1 mm 1 mps 747 mmHg 99%
    01:00 +16°C° 0.1 mm 2 mps 747 mmHg 98%
    02:00 +17°C° 0.1 mm 2 mps 748 mmHg 98%
    03:00 +17°C° 0.7 mm 2 mps 748 mmHg 98%
    04:00 +17°C° 0.7 mm 2 mps 748 mmHg 98%
    05:00 +18°C° 0.7 mm 3 mps 748 mmHg 97%
    06:00 +19°C° 0 mm 3 mps 748 mmHg 94%
    07:00 +20°C° 0 mm 4 mps 748 mmHg 90%
    08:00 +20°C° 0 mm 4 mps 747 mmHg 87%
    09:00 +22°C° 0 mm 5 mps 747 mmHg 77%
    10:00 +25°C° 0 mm 5 mps 747 mmHg 67%
    11:00 +26°C° 0 mm 6 mps 747 mmHg 57%
    12:00 +27°C° 0 mm 6 mps 747 mmHg 54%
    13:00 +28°C° 0 mm 6 mps 747 mmHg 52%
    14:00 +28°C° 0 mm 6 mps 747 mmHg 49%
    15:00 +27°C° 0.1 mm 6 mps 747 mmHg 53%
    16:00 +26°C° 0.1 mm 6 mps 747 mmHg 58%
    17:00 +26°C° 0.1 mm 5 mps 747 mmHg 62%
    18:00 +23°C° 0.3 mm 5 mps 747 mmHg 69%
    19:00 +21°C° 0.3 mm 5 mps 747 mmHg 76%
    20:00 +19°C° 0.3 mm 4 mps 748 mmHg 83%
    21:00 +18°C° 0.4 mm 4 mps 748 mmHg 87%
    22:00 +18°C° 0.4 mm 4 mps 748 mmHg 91%
    23:00 +17°C° 0.4 mm 4 mps 749 mmHg 94%

    30 May, Thursday

    Time Temperature Precipitation Wind Pressure Humidity
    00:00 +17°C° 0.2 mm 3 mps 749 mmHg 96%
    01:00 +17°C° 0.2 mm 3 mps 750 mmHg 97%
    02:00 +16°C° 0.2 mm 2 mps 750 mmHg 98%
    03:00 +15°C° 0 mm 2 mps 750 mmHg 97%
    04:00 +15°C° 0 mm 2 mps 751 mmHg 96%
    05:00 +14°C° 0 mm 2 mps 751 mmHg 95%
    06:00 +12°C° 0.1 mm 3 mps 752 mmHg 95%
    07:00 +12°C° 0.1 mm 3 mps 752 mmHg 95%
    08:00 +12°C° 0.1 mm 3 mps 752 mmHg 94%
    09:00 +13°C° 0.1 mm 2 mps 753 mmHg 93%
    10:00 +13°C° 0.1 mm 2 mps 753 mmHg 91%
    11:00 +13°C° 0.1 mm 2 mps 753 mmHg 90%
    12:00 +13°C° 0.3 mm 2 mps 753 mmHg 90%
    13:00 +14°C° 0.3 mm 2 mps 754 mmHg 89%
    14:00 +14°C° 0.3 mm 1 mps 754 mmHg 89%
    15:00 +14°C° 0 mm 1 mps 754 mmHg 87%
    16:00 +14°C° 0 mm 1 mps 754 mmHg 85%
    17:00 +14°C° 0 mm 1 mps 754 mmHg 83%
    18:00 +14°C° 0 mm 1 mps 754 mmHg 83%
    19:00 +14°C° 0 mm 1 mps 755 mmHg 83%
    20:00 +13°C° 0 mm 1 mps 755 mmHg 82%
    21:00 +13°C° 0 mm 1 mps 755 mmHg 80%
    22:00 +12°C° 0 mm 1 mps 756 mmHg 79%
    23:00 +11°C° 0 mm 1 mps 756 mmHg 77%

    31 May, Friday

    Time Temperature Precipitation Wind Pressure Humidity
    00:00 +10°C° 0 mm 2 mps 756 mmHg 78%
    01:00 +9°C° 0 mm 2 mps 756 mmHg 79%
    02:00 +8°C° 0 mm 2 mps 756 mmHg 80%
    03:00 +8°C° 0 mm 2 mps 757 mmHg 79%
    04:00 +9°C° 0 mm 1 mps 757 mmHg 78%
    05:00 +8°C° 0 mm 1 mps 757 mmHg 77%
    06:00 +11°C° 0 mm 1 mps 757 mmHg 68%
    07:00 +13°C° 0 mm 1 mps 757 mmHg 60%
    08:00 +15°C° 0 mm 0 mps 757 mmHg 52%
    09:00 +18°C° 0 mm 1 mps 756 mmHg 46%
    10:00 +19°C° 0 mm 1 mps 756 mmHg 41%
    11:00 +20°C° 0 mm 1 mps 755 mmHg 35%
    12:00 +19°C° 0 mm 2 mps 755 mmHg 35%
    13:00 +20°C° 0 mm 2 mps 754 mmHg 35%
    14:00 +20°C° 0 mm 3 mps 754 mmHg 34%
    15:00 +20°C° 0 mm 3 mps 753 mmHg 37%
    16:00 +20°C° 0 mm 3 mps 753 mmHg 40%
    17:00 +20°C° 0 mm 3 mps 753 mmHg 43%
    18:00 +17°C° 0.1 mm 4 mps 753 mmHg 56%
    19:00 +13°C° 0.1 mm 5 mps 754 mmHg 69%
    20:00 +9°C° 0.1 mm 6 mps 754 mmHg 82%
    21:00 +8°C° 0.2 mm 5 mps 754 mmHg 85%
    22:00 +7°C° 0.2 mm 4 mps 755 mmHg 88%
    23:00 +6°C° 0.2 mm 4 mps 756 mmHg 90%
    Show more